{"data":{"norad_id":61550,"intl_designator":"2024-184U","name":"STARLINK-32476","alt_names":[],"object_type":"PAYLOAD","status":"ACTIVE","operator":null,"country":"US","launch_date":"2024-10-15","launch_site_code":"AFWTR","launch_vehicle":null,"mission":null,"orbit_class":"UNKNOWN","rcs_meters":null,"size_class":null,"mass_kg":null,"dimensions":null,"purposes":["comms"],"wikipedia_slug":null,"has_3d_model":false,"image_url":null,"decayed_at":null,"tle_current":{"epoch":"2026-05-25T00:52:38.307072Z","epoch_age_seconds":72216,"freshness":"FRESH","line1":"1 61550U 24184U   26145.03655448 -.00216759  00000+0 -79133-2 0  9995","line2":"2 61550  53.1616  19.4857 0007792 143.9824 216.1702 15.28511317 90193","mean_motion":15.28511317,"eccentricity":0.0007792,"inclination_deg":53.1616,"raan_deg":19.4857,"arg_perigee_deg":143.9824,"mean_anomaly_deg":216.1702,"bstar":-0.0079133,"rev_number":9019,"period_min":94.209312288657,"perigee_km":474.91774959612,"apogee_km":485.60587830779,"semimajor_km":6858.398813952,"source":"CELESTRAK","updated_at":"2026-05-25T13:38:19.400902Z"}}}